Theta_e
344 343 345 342 341 341 339 336 334 334 334 334 330 325 325 328 331 333 334 336 339 341 341 343 341 337 334 332 329 329 331 333 332 330 328 330 331 332 334 333 332 332 332 332 332 332 334 331 326 323 322 320 321 324 330 332 331 329 326 324 322 321 320 316 312 307 308 314 311 308 313 312 310 315 315 311 312 312 311 310 310 313 312 311 311
344 344 345 343 343 341 339 338 334 333 334 333 330 325 325 329 331 333 333 335 338 340 341 342 342 339 335 331 329 329 330 330 330 329 328 331 332 332 334 333 333 333 333 333 332 332 333 333 328 325 323 323 323 322 326 330 330 329 326 323 321 318 316 313 311 307 305 312 311 309 313 312 314 317 314 311 312 311 311 311 311 312 312 311 311
342 343 344 344 345 342 339 340 337 334 334 332 330 326 324 328 331 331 333 335 337 339 341 342 342 339 335 332 331 329 329 329 329 329 328 330 332 332 333 333 335 335 334 333 333 333 334 334 329 327 325 323 324 323 324 329 329 328 326 323 323 319 316 313 312 309 305 309 310 311 316 314 315 316 313 311 311 311 311 311 312 312 311 311 311
340 341 343 343 345 343 340 341 339 335 334 333 330 327 324 327 330 330 332 336 338 338 340 342 342 338 334 332 332 329 329 329 328 330 329 330 331 332 332 333 335 335 335 334 334 334 334 332 329 329 328 325 324 323 324 329 330 328 325 324 325 322 318 313 312 310 306 307 307 315 321 319 317 316 314 311 311 311 310 311 311 311 310 311 311
339 339 341 342 344 344 342 341 340 338 334 333 332 328 325 327 329 330 332 335 337 339 340 342 341 338 334 333 332 329 329 330 328 330 331 331 332 332 333 333 333 334 336 335 335 334 332 331 330 330 330 328 324 322 326 330 331 330 325 323 324 323 320 313 311 309 307 307 308 319 323 323 322 318 314 310 310 311 310 311 311 311 310 310 311
338 338 340 341 344 344 342 341 341 340 336 335 333 329 327 326 329 330 330 333 336 337 338 339 338 336 334 333 332 330 329 330 331 331 333 333 332 332 332 332 332 332 334 333 334 333 330 329 328 328 328 327 323 323 329 331 330 330 326 323 322 322 319 313 311 308 307 307 310 320 323 324 325 319 313 310 310 310 311 311 311 310 310 310 310
340 340 339 341 343 343 342 341 341 341 338 336 332 328 328 326 327 329 330 331 333 334 335 335 335 334 333 332 330 329 329 329 331 331 332 333 332 331 331 331 330 330 331 330 331 330 328 327 325 324 325 324 320 325 332 331 329 330 327 323 322 321 318 313 309 307 307 306 311 319 321 324 326 321 312 309 310 310 311 310 310 309 309 309 309
342 340 340 342 343 342 342 341 340 340 339 338 334 329 328 327 326 328 329 330 331 332 332 332 332 332 331 329 328 327 328 329 330 330 331 332 331 330 330 330 329 329 328 328 328 327 327 325 325 324 326 324 319 326 333 332 329 328 327 324 322 321 317 312 307 306 306 306 314 319 321 324 326 322 312 308 311 309 310 310 310 309 309 309 309
341 340 340 341 343 344 341 340 340 340 340 339 338 332 328 328 328 326 327 328 330 331 331 331 331 330 330 328 327 327 328 330 330 332 331 330 329 329 329 328 327 327 327 327 327 326 325 324 325 326 328 321 317 328 333 331 329 328 327 324 323 322 317 310 305 305 307 307 316 321 319 322 324 322 314 309 311 308 309 309 309 310 308 308 308
340 341 341 339 341 343 341 341 340 340 340 340 339 336 330 328 330 328 325 326 327 329 330 330 330 330 329 328 327 328 329 330 330 332 330 328 328 328 327 325 325 325 325 325 325 325 323 323 324 326 328 318 317 331 333 330 329 327 326 324 323 321 315 308 305 305 308 309 316 319 315 319 323 320 312 308 308 308 309 309 309 309 308 308 308
338 341 341 340 340 341 342 341 340 340 341 340 340 338 333 329 331 329 326 325 324 326 329 329 328 328 328 329 329 329 330 330 330 331 328 326 326 325 324 324 323 323 323 322 322 323 322 323 321 324 326 317 322 333 332 331 328 325 325 324 323 320 314 308 305 306 309 309 314 316 308 313 319 312 307 307 307 307 308 308 308 308 308 308 307
337 339 341 341 340 340 341 341 340 341 342 341 339 338 336 334 333 331 329 325 322 324 326 327 326 326 328 329 330 330 330 329 328 329 326 324 324 324 323 322 323 322 322 321 321 322 322 322 321 323 323 318 327 333 330 330 327 323 323 323 323 318 313 306 305 308 308 309 312 311 306 309 311 307 307 307 307 307 307 307 307 308 307 307 307
336 338 339 340 341 340 340 341 340 341 342 341 338 337 336 335 334 333 332 327 321 320 324 326 325 325 326 328 328 328 327 325 324 325 324 323 323 323 323 324 324 323 322 321 320 321 321 321 322 323 322 320 327 331 329 327 324 321 320 322 322 317 312 306 305 307 307 308 308 308 308 307 307 307 307 307 307 307 307 307 307 307 307 307 307
332 336 338 339 340 341 341 341 341 342 342 340 338 336 335 333 332 332 333 330 323 320 324 324 323 324 325 326 326 324 322 322 321 322 324 324 324 325 325 325 323 322 322 320 319 317 317 318 320 321 323 322 323 327 328 324 322 320 320 322 321 317 312 307 305 305 307 307 307 307 307 307 307 307 307 308 307 307 307 307 307 307 307 307 307
322 328 334 337 340 342 342 343 342 343 341 339 338 336 335 333 332 332 333 332 325 321 324 322 321 323 325 326 324 322 321 321 321 323 326 325 326 327 326 326 323 322 321 319 316 313 312 313 317 318 324 326 321 324 326 322 321 320 320 322 320 318 313 310 307 304 305 306 307 307 307 307 307 307 308 308 307 307 307 307 307 307 307 307 307
317 321 326 332 337 340 340 341 341 341 340 339 338 336 335 334 333 332 332 332 325 322 322 319 320 322 324 324 322 321 321 321 322 325 326 325 327 327 326 326 324 322 320 318 316 313 310 310 312 313 321 326 319 320 324 321 320 320 320 321 321 318 315 312 308 304 304 305 306 307 307 307 307 308 308 308 307 307 307 307 307 307 307 307 306
316 318 322 325 331 336 337 338 339 339 339 338 338 337 335 335 335 333 333 332 325 322 320 316 319 322 323 322 321 322 322 322 324 327 327 326 328 327 326 326 324 322 320 319 317 313 311 311 310 311 319 323 317 318 322 319 318 318 318 319 320 318 316 313 309 304 304 305 306 306 307 307 307 307 307 307 307 307 307 307 307 306 307 306 306
315 316 319 322 326 331 334 336 337 337 337 337 337 337 336 334 334 333 333 332 325 321 318 315 319 321 322 321 321 323 323 323 326 328 329 328 327 327 327 326 324 322 321 320 317 315 313 312 311 312 317 317 316 318 320 318 315 314 315 317 317 317 315 312 309 304 304 305 305 306 307 307 307 307 307 307 307 307 307 307 307 306 306 306 306
313 314 316 319 322 326 330 333 335 336 336 336 336 337 336 334 334 333 332 332 327 321 317 316 320 322 322 322 323 324 323 323 325 328 330 330 327 328 328 327 325 323 322 320 317 317 316 315 313 313 316 316 318 321 321 320 316 312 312 314 315 315 314 311 309 305 305 305 305 306 306 307 307 307 307 307 307 307 307 307 306 306 306 306 306
312 313 314 316 318 321 326 332 334 334 334 336 337 337 337 335 333 332 332 332 328 322 317 317 322 325 324 324 325 323 322 322 323 327 330 330 329 330 330 327 325 324 323 320 318 319 318 318 317 317 319 321 322 324 324 322 318 314 313 313 312 314 315 311 309 307 306 306 305 306 306 306 307 307 307 307 307 307 307 306 306 306 306 306 306
310 310 311 313 315 318 322 328 333 334 333 334 336 337 337 334 332 333 333 332 330 323 318 321 325 326 326 325 325 324 326 325 325 328 330 330 330 331 329 327 327 326 323 321 319 319 319 320 321 320 321 323 324 324 324 323 320 317 315 313 312 313 314 312 309 308 307 307 306 305 306 306 306 306 307 307 307 307 307 306 306 306 306 307 306
308 309 310 311 312 314 317 322 328 334 335 333 334 336 336 334 331 333 334 333 331 324 318 323 327 326 327 327 326 326 327 327 327 328 330 330 331 331 329 328 327 326 324 323 321 321 320 321 323 322 322 324 324 324 323 323 322 321 318 314 313 313 313 311 310 308 308 308 307 306 306 306 306 306 307 307 307 307 306 306 306 306 306 306 306
307 308 310 311 312 314 316 317 322 328 334 335 335 336 336 335 333 332 334 332 332 329 320 322 329 328 327 328 328 326 326 328 327 328 328 329 332 332 330 329 328 326 325 324 323 322 321 321 322 323 324 324 325 324 324 324 322 322 322 318 314 313 312 312 311 310 309 308 308 307 306 306 306 306 307 306 306 306 306 306 306 306 306 306 306
306 307 309 311 313 314 316 317 318 321 326 330 333 335 335 336 336 332 333 333 332 332 325 323 329 329 328 328 330 328 327 328 329 329 328 328 332 332 329 329 328 326 325 325 324 324 322 321 321 322 323 325 325 325 325 325 323 320 322 321 317 313 312 312 311 310 310 309 309 307 307 307 307 306 306 306 306 306 306 306 306 306 306 306 306
306 306 307 309 312 314 315 316 317 318 319 322 327 332 334 335 336 334 333 334 333 331 328 326 328 329 328 328 330 329 328 329 330 331 329 329 332 332 330 329 328 327 326 326 326 325 324 322 321 321 322 324 325 325 324 326 325 322 321 321 321 316 312 312 312 310 309 310 310 308 307 307 307 306 306 307 306 306 306 306 306 306 306 306 306
307 307 307 307 309 312 315 316 317 317 318 318 321 328 333 333 335 336 335 335 335 332 329 328 329 329 328 327 329 330 329 329 331 331 329 329 331 331 330 329 328 328 326 326 327 326 325 323 322 322 322 323 324 325 324 325 325 324 321 321 323 320 314 312 312 311 310 310 311 309 308 307 307 307 306 307 306 306 306 306 306 306 306 306 306
308 308 308 308 308 309 311 314 315 317 317 317 318 324 332 334 334 335 335 336 336 334 330 329 330 329 329 328 328 329 330 330 331 331 329 328 329 329 328 328 329 328 326 326 327 326 326 324 323 322 322 322 322 323 324 325 325 325 323 322 324 322 318 314 313 314 312 311 312 310 309 308 307 307 307 306 306 306 306 306 306 306 306 306 306
309 308 308 308 308 308 308 310 312 314 316 317 318 320 326 332 334 334 335 335 335 335 333 331 331 330 329 329 328 328 329 330 330 330 330 329 329 328 328 328 328 326 325 325 326 326 325 324 323 322 322 322 322 322 323 324 325 325 325 324 324 325 322 317 315 317 316 313 312 311 309 308 307 307 307 306 306 306 307 306 306 306 306 306 305
310 309 310 310 309 308 308 308 309 310 312 315 317 318 320 325 331 333 334 334 334 334 334 332 331 331 330 330 329 328 327 328 329 328 329 329 330 330 328 328 328 326 324 323 324 325 324 323 322 321 321 321 321 321 322 322 323 325 325 325 325 325 324 321 318 318 318 316 314 312 309 308 307 306 307 307 306 306 308 307 306 306 305 306 306
309 309 310 310 309 308 308 308 308 309 310 312 314 317 318 320 323 326 330 332 333 334 334 333 330 329 330 330 329 328 327 327 327 327 328 328 330 330 327 327 328 326 323 321 322 323 323 322 320 320 320 319 319 320 320 321 322 324 325 326 326 326 326 324 321 320 319 318 316 314 310 308 306 306 307 307 306 306 307 306 305 306 305 306 306
311 310 311 310 309 308 307 307 307 308 309 309 311 313 315 317 318 319 322 325 327 330 333 334 332 329 328 330 329 328 328 327 326 327 328 328 328 328 327 327 327 324 322 321 321 322 321 320 318 318 319 318 317 318 318 319 321 322 324 326 326 326 326 325 324 322 320 319 317 315 311 309 307 306 307 307 306 306 306 306 305 306 306 306 305
312 312 311 311 309 307 306 306 306 306 307 309 309 310 311 313 315 315 317 318 319 322 325 328 332 332 331 329 328 329 328 327 326 325 326 326 326 327 327 327 324 321 322 321 320 320 319 319 318 317 318 318 316 315 316 316 319 321 323 326 326 326 326 325 325 324 322 319 317 315 312 310 307 306 307 307 306 306 306 306 306 305 305 305 305
313 312 311 310 308 306 306 306 305 306 306 307 307 309 310 310 310 311 312 313 314 315 317 319 322 328 331 331 329 329 328 327 327 325 324 325 326 327 326 325 324 323 323 323 322 320 321 322 320 318 318 318 316 314 314 314 316 319 322 325 326 326 326 326 325 324 323 320 317 315 313 311 309 306 306 307 307 306 306 306 306 306 305 305 305
312 312 311 308 307 307 307 307 306 306 305 305 306 306 307 308 309 310 310 310 310 311 312 313 314 318 324 329 330 330 328 328 328 327 325 325 325 327 328 327 326 325 326 327 326 322 323 326 323 320 319 318 317 315 311 311 313 317 321 324 326 326 325 326 326 325 324 321 317 314 313 311 310 308 306 306 307 307 307 306 306 306 305 306 305
312 312 311 309 308 308 307 306 305 305 305 305 305 305 305 306 307 308 310 310 310 310 309 309 310 312 316 323 330 331 329 328 328 329 328 327 326 326 328 329 329 328 328 329 330 326 326 328 327 323 320 319 318 316 311 309 311 316 320 323 326 326 326 326 325 324 323 321 318 314 312 311 310 309 307 307 309 309 308 307 307 306 306 306 306
314 312 311 310 309 308 306 305 305 305 305 305 305 305 305 305 305 306 308 310 311 311 311 310 309 310 311 317 325 328 329 330 329 329 330 329 329 328 328 328 330 330 329 329 331 331 329 329 330 328 324 320 319 317 311 308 311 315 319 322 325 326 326 325 325 324 323 321 318 315 313 312 311 310 308 310 313 311 309 309 308 307 307 307 306
315 313 311 311 309 306 305 305 305 306 306 306 306 306 306 305 306 305 305 307 310 311 312 312 311 310 310 313 318 322 327 331 330 330 331 330 330 330 329 329 330 331 331 330 331 332 331 330 331 330 327 322 319 318 312 308 311 316 320 323 324 325 325 324 323 323 321 320 318 317 315 313 311 310 309 311 315 314 312 312 310 309 309 308 307
315 314 312 312 309 305 305 306 307 307 307 307 307 306 306 306 306 306 306 305 307 309 311 312 311 311 311 311 313 317 323 329 331 331 331 331 331 331 331 332 331 331 331 331 331 332 332 331 331 331 329 325 320 318 313 308 312 318 321 323 324 324 324 323 322 321 319 317 315 315 314 313 311 311 310 310 313 315 316 315 312 310 309 308 307
315 315 313 313 311 307 305 306 307 307 307 307 307 306 305 305 305 306 307 307 306 307 308 310 310 311 311 311 311 313 318 324 328 330 331 332 332 332 333 334 334 333 332 331 331 331 332 332 332 331 329 326 322 319 313 308 312 319 322 323 324 323 323 322 321 319 314 312 313 315 315 313 311 310 311 310 311 314 316 316 316 315 313 309 307
316 315 314 313 312 310 308 308 308 307 307 307 307 307 306 305 305 305 305 306 307 307 307 308 309 310 311 311 312 312 313 315 319 324 328 331 332 333 334 334 335 334 334 332 330 330 331 331 332 331 329 326 322 319 314 308 312 321 323 323 324 323 322 320 317 313 311 313 316 318 317 314 311 309 310 311 309 310 313 316 318 318 317 313 307
315 315 315 314 313 312 311 311 310 309 309 308 308 307 306 306 305 305 304 304 306 307 307 307 308 310 311 312 313 313 313 312 313 315 318 323 327 332 334 334 333 332 333 333 331 328 329 331 332 330 328 326 323 319 314 308 313 321 324 324 323 321 318 315 312 311 314 317 319 320 319 316 311 309 309 310 309 307 308 312 315 315 316 316 310
315 315 315 314 313 313 312 312 311 311 310 310 309 307 306 305 305 305 304 304 304 306 308 308 308 308 310 311 312 312 313 313 313 312 312 313 316 322 328 333 333 330 330 333 333 329 327 330 331 330 329 326 323 321 315 311 314 319 323 323 320 316 313 313 314 316 319 320 320 321 318 313 312 313 311 310 308 305 305 308 310 310 311 313 309
315 316 315 314 314 313 313 312 311 311 311 311 310 307 305 305 305 304 304 304 303 305 307 308 309 308 309 310 310 311 312 312 313 313 313 312 311 313 316 321 324 322 322 330 334 329 327 330 330 329 328 326 324 321 318 315 315 318 322 322 320 319 318 317 317 320 321 320 320 318 314 312 315 317 312 307 306 303 303 306 308 308 308 308 305
315 315 315 315 314 313 313 312 312 311 311 311 309 306 305 305 304 304 304 303 303 304 306 308 309 310 309 310 310 311 311 312 313 313 313 313 312 312 312 312 312 311 314 328 335 331 327 329 330 329 327 326 324 322 320 318 317 318 321 322 323 324 323 323 322 321 321 320 318 314 312 314 318 318 310 303 303 302 302 304 307 307 306 305 304
315 315 315 315 314 313 313 312 312 311 311 311 308 306 305 305 304 303 303 303 303 304 307 309 310 310 311 310 311 311 311 312 312 313 313 313 313 312 313 312 311 310 312 323 332 332 329 329 329 329 328 325 325 324 322 320 319 318 319 321 324 325 325 325 325 323 321 319 316 311 311 316 319 318 312 306 302 303 304 305 306 306 304 304 303
314 315 315 314 314 313 313 312 312 312 311 310 307 305 305 304 304 303 302 303 302 304 308 310 310 311 311 310 311 311 311 312 311 312 312 313 313 313 313 312 312 314 315 317 322 325 327 329 330 330 328 326 325 325 324 322 321 320 320 321 322 323 324 325 324 324 323 320 315 310 311 317 319 318 317 313 308 305 304 304 304 304 303 303 303
314 314 315 314 314 313 313 312 312 311 310 308 306 305 305 304 304 302 302 302 302 304 308 311 312 311 311 311 312 311 311 311 311 311 311 312 313 313 313 312 312 315 318 319 321 321 320 322 327 330 329 327 326 325 325 324 323 322 321 321 321 322 323 323 323 324 323 320 315 310 313 318 319 319 319 319 317 310 303 302 303 302 303 304 305
314 314 314 314 313 313 313 312 312 311 310 307 305 305 305 304 304 303 303 303 303 303 306 310 311 312 312 312 312 312 312 311 311 311 311 311 312 312 313 313 312 314 317 320 324 326 324 320 323 330 330 328 327 326 326 325 325 324 323 322 322 323 323 323 323 323 323 322 318 312 314 318 317 317 320 320 320 316 306 302 304 304 305 307 310
313 313 313 313 313 313 312 312 312 311 309 307 305 305 305 304 304 304 304 304 304 304 304 307 309 310 311 312 312 312 311 311 311 311 311 311 311 312 312 313 313 313 315 318 321 325 328 328 328 330 330 329 328 327 327 326 325 325 324 323 323 324 324 325 325 324 322 323 322 318 316 316 312 312 317 320 320 318 311 306 307 309 310 314 320
313 313 313 313 313 313 313 312 312 311 309 307 305 305 305 305 304 304 304 305 305 305 304 305 306 308 309 310 310 311 311 311 311 310 311 311 310 311 312 313 313 312 313 316 320 322 324 327 329 330 330 330 329 328 328 327 326 326 325 324 324 324 326 326 326 325 324 323 324 322 319 315 312 311 314 319 320 318 315 313 313 316 319 324 327
313 312 312 312 312 312 312 312 312 311 309 307 305 305 305 304 304 304 304 305 305 306 306 305 306 306 307 308 308 309 309 310 310 311 311 311 311 311 311 312 312 313 312 313 317 321 323 324 324 326 328 328 329 329 328 328 328 327 326 324 324 324 325 326 326 326 326 325 324 323 322 317 315 316 313 316 320 319 319 320 321 323 325 328 329
Wind_Speed
1 3 6 12 13 12 12 12 11 9 7 5 3 3 3 4 6 9 10 12 14 15 13 13 15 18 18 16 15 13 11 9 9 9 10 12 12 12 12 12 11 11 15 18 16 14 14 17 16 11 9 6 6 8 9 10 12 13 12 12 11 9 11 13 16 18 18 18 20 22 22 21 21 20 20 20 18 16 16 16 15 15 15 15 14
2 2 4 10 12 13 12 12 11 10 7 5 4 4 3 4 7 9 11 12 13 15 14 14 16 17 17 15 14 13 11 10 10 8 9 11 11 11 12 11 9 11 15 16 15 14 14 16 15 10 8 6 4 6 8 9 11 13 11 11 10 8 11 16 17 16 18 19 21 22 21 21 19 19 20 19 17 16 15 15 14 15 14 13 13
3 2 3 6 11 13 12 12 12 10 7 5 4 4 4 5 7 9 11 13 13 14 14 15 16 17 17 14 12 11 10 10 11 10 8 10 11 11 11 10 10 11 14 15 15 14 13 14 12 8 8 7 4 5 7 8 10 12 11 10 10 10 11 16 17 15 16 18 22 22 20 19 19 19 20 18 17 16 15 14 14 14 13 12 12
5 3 3 4 9 13 13 11 11 10 7 5 3 4 5 6 7 9 12 13 13 13 14 15 15 18 17 13 11 10 10 9 10 11 11 10 11 12 11 10 11 12 14 15 14 13 12 11 8 7 7 7 6 6 7 9 11 11 11 11 11 11 11 15 16 16 16 18 22 19 17 17 17 18 18 18 16 15 15 13 13 12 12 12 12
7 5 4 4 7 13 14 11 11 10 8 5 4 4 5 7 8 9 11 13 13 13 15 15 16 17 15 12 11 9 9 9 10 12 13 13 12 12 11 11 11 11 13 13 13 12 10 8 6 5 6 6 6 8 10 11 12 11 11 11 11 11 12 14 15 17 16 17 20 17 14 15 15 16 17 17 16 15 14 13 12 11 11 11 12
5 5 5 5 6 11 14 12 11 11 10 7 5 4 6 7 8 9 10 12 14 14 14 15 16 15 13 11 10 9 9 10 13 13 15 14 13 12 11 11 10 10 12 11 11 10 8 7 6 4 5 5 6 11 14 13 13 11 11 11 11 11 12 14 15 16 16 17 18 15 14 13 12 14 17 17 16 15 14 12 11 11 10 11 12
3 3 4 4 5 10 13 14 12 11 10 9 6 5 5 6 8 9 10 12 13 14 14 14 14 13 12 11 10 10 10 11 13 14 15 15 13 11 10 9 9 10 10 9 8 7 6 6 5 4 5 4 8 14 15 15 14 12 10 11 12 12 13 14 16 17 17 17 17 15 14 13 11 13 16 16 15 15 13 12 11 10 10 11 12
3 1 2 1 3 10 13 14 14 12 10 9 8 6 6 6 6 7 9 10 11 13 14 14 13 13 12 11 11 11 10 11 12 13 14 14 12 10 10 9 8 9 8 7 6 6 5 5 4 4 5 5 11 16 15 15 15 13 10 11 13 14 14 15 17 17 18 18 17 15 13 12 11 12 15 16 15 14 12 11 11 10 10 11 11
3 2 2 3 3 8 12 15 14 13 11 10 10 7 6 6 6 6 7 9 10 12 12 12 13 13 12 12 11 11 11 12 13 15 14 13 11 10 9 9 8 7 7 6 5 5 4 5 5 6 5 5 14 18 15 14 13 13 11 12 13 14 14 16 18 18 18 18 16 14 14 13 11 12 14 15 14 14 12 11 10 10 11 10 10
6 4 4 4 3 5 10 15 13 13 12 11 11 9 7 7 7 6 7 8 9 11 11 11 12 13 12 12 12 12 14 14 14 15 14 11 11 10 9 8 8 7 6 5 4 4 3 6 6 8 6 6 16 19 15 14 14 14 12 13 14 14 15 16 18 17 17 18 16 14 15 14 12 13 14 15 14 14 12 11 10 10 10 10 11
7 5 4 3 2 2 9 13 13 13 12 11 11 9 8 7 8 7 7 7 8 10 11 11 11 12 12 12 13 13 14 13 13 13 12 10 10 10 8 7 7 6 6 4 4 4 4 6 6 8 6 8 18 18 15 15 14 14 12 13 13 13 15 16 18 17 17 17 15 15 16 14 13 14 15 14 13 13 12 11 10 10 10 10 10
9 5 4 1 2 3 8 12 13 14 13 13 11 9 7 7 8 7 7 5 6 9 10 11 11 11 12 13 13 14 14 12 11 12 11 9 9 9 8 7 6 5 5 4 5 5 7 6 5 7 6 10 20 18 15 15 13 13 13 13 13 13 14 17 18 17 17 16 16 16 16 14 13 14 13 13 12 12 11 11 10 10 10 10 10
9 7 5 3 3 6 9 13 15 15 13 13 11 9 7 7 6 5 6 5 4 8 10 11 11 12 13 13 14 13 13 11 10 11 10 10 10 9 8 7 6 5 5 5 6 7 9 8 6 7 6 11 18 17 15 13 12 13 13 14 14 14 15 17 18 16 16 15 16 17 16 14 13 12 11 11 11 10 11 11 10 10 10 10 11
10 9 7 6 4 6 10 13 15 15 13 12 11 9 8 7 6 4 7 6 3 6 10 10 12 12 12 13 13 12 11 11 11 12 12 12 10 9 8 7 6 6 6 6 7 7 9 10 9 8 8 10 15 17 15 12 12 13 14 14 14 15 15 17 16 15 15 15 15 16 16 14 13 11 10 10 9 9 10 10 10 10 10 10 10
9 9 8 7 5 3 9 12 14 13 10 11 12 11 10 9 7 5 6 5 2 5 9 10 12 13 13 13 13 12 12 13 13 12 12 11 10 9 8 7 6 7 7 7 8 7 8 11 11 11 11 11 13 16 15 13 12 14 15 13 13 14 15 16 15 14 14 16 16 15 16 15 13 12 10 9 8 8 9 9 9 10 10 10 10
9 8 9 7 5 2 3 7 9 9 7 9 12 12 11 10 9 7 7 6 3 4 7 9 13 14 14 13 12 12 13 13 13 13 13 11 11 10 8 8 8 8 9 8 8 7 8 10 11 13 14 13 13 15 15 14 13 15 15 13 12 13 13 14 14 13 14 15 16 15 14 14 13 11 10 8 7 7 8 8 9 9 10 10 9
9 8 8 8 6 5 3 1 2 5 8 9 9 10 11 11 10 9 8 8 5 5 7 10 14 14 14 13 12 12 12 13 13 15 15 13 12 11 10 10 10 10 9 9 8 8 8 9 10 13 15 14 14 15 15 14 13 14 14 12 11 11 12 13 12 13 14 15 16 15 15 13 12 10 9 7 6 7 7 8 8 9 9 9 9
8 8 8 7 6 5 4 3 2 2 7 9 8 9 10 11 10 9 9 10 7 6 8 12 14 13 13 13 12 12 12 13 13 15 14 14 14 12 11 12 12 11 10 9 9 9 9 9 11 14 15 14 14 14 12 11 12 13 14 12 11 10 11 12 11 12 13 15 15 15 15 14 13 11 9 7 5 6 6 7 9 9 8 8 8
7 7 7 7 6 6 5 4 2 2 3 6 8 11 11 11 11 11 11 11 8 7 10 12 13 12 12 12 13 12 12 13 12 12 13 15 15 13 13 13 13 12 10 10 9 9 10 10 11 13 13 13 12 11 9 8 9 12 13 12 11 9 9 11 10 10 11 12 13 14 14 15 14 12 10 8 6 5 6 7 9 8 7 7 7
6 7 7 7 7 6 5 4 4 4 4 5 6 10 11 13 14 13 12 11 9 8 11 13 12 12 12 12 13 13 12 12 11 11 14 14 14 16 16 15 15 14 11 11 9 9 10 11 11 11 12 11 10 9 7 6 8 9 11 11 11 9 9 10 10 10 10 10 10 11 12 12 12 11 9 8 7 6 6 7 8 7 6 6 6
7 6 8 8 7 7 6 5 5 5 4 5 5 6 10 14 16 15 13 12 10 9 13 14 12 13 12 13 14 13 13 13 12 12 13 13 14 17 19 18 16 15 13 12 10 9 9 11 11 10 10 11 9 8 6 5 6 7 9 10 10 10 10 10 10 10 9 9 9 10 10 10 11 11 10 9 8 8 8 8 8 7 6 6 5
7 6 7 8 9 8 7 6 5 5 4 5 5 4 9 16 16 15 14 13 11 11 15 15 13 14 13 14 15 14 13 13 13 12 10 11 15 19 20 20 18 16 15 13 12 10 10 11 11 11 10 11 10 8 7 5 4 5 7 8 9 9 10 10 10 10 9 9 9 10 11 10 10 11 11 10 9 9 9 8 8 7 6 6 5
7 7 8 8 9 8 7 6 5 5 5 5 4 3 7 15 16 15 14 14 13 13 17 18 15 15 15 15 16 15 14 13 13 12 10 9 14 20 20 20 18 16 15 14 13 10 10 11 12 12 12 12 11 10 9 7 6 6 7 8 8 9 9 10 9 10 10 10 10 10 11 10 11 11 12 11 10 10 10 9 8 7 7 6 5
8 8 8 8 8 8 8 7 6 5 6 7 5 4 4 12 17 16 14 14 14 14 17 19 17 16 15 16 16 16 15 14 12 11 11 10 14 20 21 20 17 16 16 15 14 11 10 12 12 13 14 14 14 12 11 10 9 7 8 8 9 9 9 9 9 10 10 10 10 10 10 10 10 12 12 12 10 11 11 10 9 8 7 6 5
8 8 8 8 9 9 8 8 7 6 6 7 6 4 3 8 15 16 15 14 13 14 16 18 19 17 16 17 17 17 17 15 12 12 13 13 16 21 23 22 17 16 17 16 15 13 12 13 13 14 15 16 17 16 14 13 12 10 9 9 10 9 9 9 9 9 9 9 10 10 10 10 10 11 13 13 12 12 12 11 10 9 8 7 6
7 7 7 7 8 9 10 9 8 8 7 7 6 4 3 6 13 15 15 15 13 14 15 18 20 19 17 18 19 20 19 18 15 14 14 15 18 23 24 22 17 16 17 16 15 13 13 14 15 16 17 18 19 18 17 16 14 13 11 10 11 10 10 10 9 9 9 9 9 9 9 9 10 11 13 14 13 13 13 11 11 10 9 8 6
8 7 7 7 6 7 9 11 10 10 9 8 6 4 2 5 11 15 16 16 15 14 15 17 20 20 19 19 21 22 21 21 19 17 16 16 18 21 22 20 17 17 16 16 16 15 15 15 16 17 18 20 21 21 20 19 17 15 13 12 12 12 11 10 9 9 8 8 7 7 8 9 10 12 14 15 14 15 14 12 11 10 10 8 7
9 7 8 8 7 6 6 8 10 10 10 9 7 5 3 3 8 13 15 16 16 15 15 17 18 20 21 20 21 23 22 21 21 20 18 18 19 20 21 20 19 18 18 17 18 18 17 17 17 17 19 21 22 23 23 22 19 17 15 14 14 13 12 11 9 9 8 7 6 6 6 8 11 13 15 16 15 15 14 13 12 11 10 9 7
8 7 10 10 8 8 6 5 7 8 10 10 9 8 6 4 5 8 9 13 15 16 18 18 17 19 21 22 22 23 23 23 21 21 21 19 19 20 21 21 20 19 19 18 18 18 17 17 17 17 19 21 22 24 25 24 22 19 17 16 16 15 14 12 10 9 9 8 7 6 6 7 10 14 16 17 16 16 15 14 13 12 11 10 9
7 6 9 10 10 9 8 6 5 6 7 9 10 10 9 8 7 6 6 8 9 14 20 21 19 20 21 23 23 23 24 25 23 22 22 21 19 20 22 20 20 20 19 18 18 17 16 16 17 17 18 19 22 24 25 25 24 22 19 18 18 17 15 13 11 10 10 9 8 7 7 7 10 13 17 18 17 17 15 14 13 12 12 11 10
10 6 8 8 9 10 9 7 5 4 5 6 8 10 11 11 11 10 10 9 8 9 15 20 22 23 23 23 24 25 25 25 25 24 23 23 22 22 23 21 20 20 19 17 17 16 16 16 17 17 17 18 20 22 24 26 26 24 21 19 19 18 17 14 13 12 11 10 9 8 8 8 10 13 17 19 18 17 16 15 14 13 12 12 11
11 9 9 8 8 9 9 8 7 5 4 5 6 8 9 12 14 14 14 14 13 12 12 14 18 22 25 25 24 25 26 27 27 27 25 25 25 25 24 22 21 21 18 17 17 16 16 17 17 17 17 18 19 21 23 25 27 26 23 21 21 20 18 16 15 14 13 12 11 10 9 8 10 13 18 20 19 18 17 16 16 14 13 12 11
10 10 9 9 8 9 10 10 10 9 7 5 5 6 7 9 12 15 16 17 18 18 17 16 16 16 19 25 27 26 27 29 29 29 28 27 26 26 26 25 23 21 20 18 19 19 18 17 17 18 18 19 19 20 21 25 27 27 24 22 22 21 20 18 17 15 14 14 13 11 10 9 10 13 18 21 21 20 19 18 17 16 14 14 13
9 9 9 9 8 10 11 11 12 11 10 8 6 6 7 8 10 12 14 16 17 19 21 21 19 17 16 19 26 29 29 29 29 28 29 30 29 28 28 29 26 24 23 22 21 22 21 18 16 17 18 19 19 19 20 24 27 28 26 24 23 22 21 19 18 17 16 15 14 13 12 11 11 13 17 22 22 21 20 20 18 17 16 15 14
7 8 9 9 10 12 12 12 13 13 12 11 9 7 7 8 9 11 13 14 14 16 19 21 21 20 18 17 21 28 31 31 29 28 29 30 31 30 30 29 28 28 27 26 24 24 23 20 17 16 17 18 19 19 20 23 27 28 27 25 24 23 21 20 19 18 17 16 15 14 13 13 12 13 17 21 22 22 22 20 19 18 18 17 16
4 5 7 9 11 12 12 12 13 14 14 14 13 11 10 9 9 10 12 13 13 13 15 18 19 19 19 19 18 21 29 34 32 30 30 30 29 30 31 30 30 30 30 29 27 26 24 22 20 17 16 17 18 20 20 22 26 28 27 25 24 23 22 21 20 19 19 17 16 15 14 14 13 13 16 19 19 21 22 21 20 19 19 18 17
2 2 5 7 10 10 10 11 13 14 15 16 16 16 15 13 11 11 11 13 13 12 13 14 15 15 17 19 18 17 23 31 35 34 32 31 30 29 30 30 31 32 31 31 30 28 26 25 22 19 16 16 18 20 20 22 26 28 27 25 23 23 22 22 21 20 19 18 17 16 15 14 14 14 16 18 18 19 21 21 21 21 20 19 17
3 2 2 4 6 6 7 9 10 12 13 15 17 17 18 17 15 13 12 13 13 13 13 13 13 13 14 16 18 19 21 24 30 35 36 34 32 31 31 30 31 33 33 32 31 30 29 28 24 20 17 16 18 20 20 22 26 27 25 23 22 22 22 22 21 21 20 19 18 18 16 16 16 15 16 18 18 19 20 21 22 22 21 20 18
5 5 3 2 2 3 4 7 9 11 13 15 17 18 18 17 17 15 14 13 12 13 14 14 14 14 13 14 16 19 21 22 23 27 33 36 35 33 31 29 30 32 35 35 33 33 33 31 27 22 19 18 19 20 20 22 26 26 23 21 20 20 21 21 21 21 19 18 18 18 18 18 18 17 16 17 19 21 21 20 19 18 19 21 21
6 7 6 4 3 3 4 7 9 11 13 15 17 20 20 19 18 17 14 13 12 12 13 15 15 14 13 13 15 17 19 21 22 23 28 33 36 35 31 28 27 28 35 38 36 36 36 34 29 25 22 21 21 21 21 22 26 26 23 21 20 20 21 20 20 19 18 18 18 19 19 20 20 19 18 18 20 22 24 23 19 16 17 20 22
9 9 8 7 6 5 6 8 10 12 13 15 18 21 23 23 22 21 18 14 13 11 11 13 14 14 12 12 13 16 17 18 21 24 26 27 31 35 35 33 29 25 30 37 39 37 37 36 31 26 24 23 23 24 23 24 26 26 24 24 23 22 21 20 20 19 18 18 19 20 20 21 21 20 20 20 21 22 27 27 24 21 19 18 21
11 10 9 9 8 8 8 9 11 13 14 15 18 21 23 25 26 25 22 18 14 12 11 12 13 13 12 12 12 14 16 17 19 22 25 25 26 30 35 37 36 27 24 34 42 40 38 38 33 28 26 25 24 25 26 27 28 26 24 23 23 22 22 21 21 20 21 21 21 21 20 19 18 18 20 21 22 23 26 30 29 27 23 21 21
13 12 12 11 11 10 9 10 11 13 15 16 17 20 22 25 27 27 25 21 16 13 12 11 12 13 13 13 13 14 15 16 17 19 22 24 25 27 30 34 35 30 24 31 41 41 39 39 36 30 28 27 26 27 28 28 28 25 21 20 19 19 20 23 25 24 22 23 22 21 19 17 16 16 19 22 24 23 26 30 30 28 26 24 21
14 14 14 13 13 12 11 11 11 12 14 15 16 19 22 24 27 28 26 22 17 14 13 12 12 12 13 13 13 14 15 16 16 17 19 21 23 25 26 26 27 28 26 28 35 40 40 39 37 33 30 29 29 30 30 30 30 28 25 21 16 15 18 20 24 26 24 23 23 21 19 17 16 16 17 19 21 22 25 28 29 28 25 23 19
14 15 15 14 14 14 13 13 12 12 12 13 14 18 21 25 27 28 26 23 19 15 13 12 12 13 13 13 13 14 14 15 16 16 17 18 19 21 23 22 22 25 27 27 33 40 41 40 39 36 33 32 31 31 31 32 34 32 29 24 15 15 19 16 16 21 23 23 22 22 21 18 17 16 14 14 16 20 22 25 27 26 23 21 19
15 15 15 15 16 16 15 15 14 13 12 11 14 17 21 25 27 28 26 23 22 19 15 13 12 13 14 14 14 14 13 14 16 17 17 17 17 19 20 21 22 25 29 29 31 34 36 39 42 40 36 34 32 31 32 33 35 35 33 30 23 18 18 16 14 13 15 21 22 22 22 20 18 17 13 11 13 16 19 22 24 23 21 21 19
15 16 16 17 17 17 17 16 15 13 12 11 14 18 21 24 25 26 24 22 22 21 19 17 14 13 14 14 15 14 14 14 15 17 18 18 17 18 19 21 22 24 27 31 32 32 33 35 40 44 40 36 34 33 33 33 35 37 37 36 32 26 20 17 16 11 9 16 21 23 23 21 20 18 15 13 13 15 17 20 22 21 21 20 19
16 17 17 18 18 19 19 18 16 14 12 12 15 18 20 23 23 23 22 21 21 21 20 20 17 15 14 14 15 15 15 14 14 16 17 18 18 18 19 21 23 24 24 27 31 33 35 36 40 45 43 39 38 36 35 35 35 37 38 37 36 33 28 22 17 13 10 11 17 22 23 22 21 20 18 16 14 16 18 20 21 21 21 20 19
16 17 18 19 20 21 21 20 18 15 13 12 15 17 19 21 22 22 21 21 21 21 20 20 20 19 17 15 15 14 14 14 14 14 15 17 19 19 20 22 24 26 25 25 26 29 34 38 40 43 43 42 42 41 39 38 37 38 38 38 37 36 33 26 20 17 15 11 12 18 22 22 23 24 22 19 17 17 18 20 22 21 21 20 20
17 18 19 20 21 22 22 22 19 17 14 13 15 16 17 19 20 21 20 20 20 20 20 19 20 21 20 19 17 16 15 14 13 14 13 14 17 18 20 23 24 27 28 28 27 27 31 36 38 40 42 43 43 43 42 40 40 40 41 39 38 37 33 27 24 22 19 16 13 14 19 22 24 25 24 22 19 18 19 21 23 23 22 21 20
19 20 21 22 23 23 24 24 21 18 15 14 14 14 15 17 18 19 20 20 20 20 20 19 20 21 21 21 21 20 19 17 16 15 14 14 15 16 19 22 25 27 29 31 31 30 30 32 36 38 39 41 42 42 43 43 43 43 43 42 40 38 35 31 31 28 24 21 17 14 15 18 20 22 24 24 20 18 21 23 24 25 23 22 21
Wind_Direction
191 179 192 192 194 190 174 166 159 150 151 142 120 96 128 145 143 144 137 135 142 149 156 170 164 151 153 153 149 145 136 132 129 125 124 129 134 133 130 134 144 145 143 139 136 140 140 143 148 138 128 117 105 110 115 122 116 112 118 129 136 145 155 144 135 137 137 131 128 120 112 111 111 107 103 102 103 104 104 105 107 107 106 104 103
244 193 202 189 197 201 182 172 161 149 151 149 127 99 121 145 142 142 139 135 141 148 154 172 170 155 157 156 151 147 142 140 133 125 124 133 134 129 128 130 140 148 148 143 141 146 144 144 151 148 143 135 116 121 124 127 122 121 127 137 144 152 156 143 135 140 143 132 125 120 114 114 112 107 103 104 106 106 105 104 105 105 103 101 102
269 207 239 201 197 200 188 175 158 148 151 155 129 103 119 139 142 137 138 136 142 149 155 175 171 157 160 158 154 146 142 142 135 131 127 135 137 130 129 134 144 151 151 148 145 149 148 144 148 154 159 157 150 140 137 139 133 130 133 141 144 146 152 143 138 143 145 133 125 121 115 115 110 106 106 107 107 106 105 102 102 101 102 104 104
290 241 276 248 199 193 196 179 152 151 149 153 134 105 117 134 142 136 138 138 144 151 156 171 169 160 161 159 158 150 147 148 142 141 140 143 144 138 134 140 149 152 152 153 150 148 149 147 150 156 162 167 164 157 154 151 143 140 143 152 151 144 152 150 145 146 147 137 128 122 115 113 109 108 109 109 108 107 106 104 104 103 105 104 99
290 266 292 293 211 188 188 176 154 160 148 148 153 113 116 137 147 141 140 142 145 151 157 165 165 164 165 165 164 159 158 159 152 150 151 151 150 144 140 142 147 151 148 150 152 148 149 152 161 156 155 157 151 160 161 156 151 150 154 162 163 152 156 159 154 148 145 138 131 121 113 113 110 110 109 110 110 109 108 107 107 106 104 99 93
301 280 300 302 237 189 180 181 168 161 148 150 161 134 125 138 154 156 148 148 150 151 156 161 164 168 171 173 173 171 169 165 158 157 157 154 153 149 145 146 146 149 145 150 154 147 151 163 172 166 173 155 140 161 160 160 159 156 162 170 172 162 160 163 160 151 143 141 134 122 115 114 111 111 111 112 113 111 109 108 107 104 100 96 93
353 292 278 284 229 196 187 196 184 160 155 155 156 151 139 136 153 168 164 158 158 160 163 167 170 173 176 178 178 175 173 168 163 164 163 156 154 152 150 151 149 150 150 158 161 155 161 175 185 182 195 165 149 165 158 159 166 164 168 177 178 169 164 166 165 154 145 146 137 123 118 114 112 115 115 116 115 112 110 110 108 104 100 96 95
26 318 254 313 173 192 189 197 188 165 165 161 156 157 148 143 147 167 178 175 172 170 174 179 181 183 183 183 183 182 181 173 170 173 167 158 156 156 155 155 153 153 159 167 171 173 175 182 178 168 186 165 162 171 161 159 169 170 169 178 182 175 171 169 168 156 147 150 138 125 122 117 117 118 119 120 117 114 112 112 109 108 104 98 96
39 46 74 66 142 189 188 193 189 172 172 168 162 160 158 158 154 165 179 187 188 184 184 185 185 187 189 190 192 191 186 177 174 173 166 163 164 162 162 160 159 158 165 173 179 180 180 177 165 162 165 153 167 172 167 164 171 172 169 179 184 180 174 169 167 156 150 152 139 127 127 122 119 120 124 123 118 117 116 116 117 114 108 100 99
39 42 63 74 141 183 191 194 193 179 171 172 168 161 166 171 172 174 177 189 197 197 196 192 188 188 189 191 193 192 185 178 178 173 165 172 173 170 169 164 162 162 169 177 182 174 171 174 175 175 164 149 165 167 167 169 173 174 173 180 188 183 174 170 165 156 153 151 139 132 132 126 121 123 125 124 120 120 121 122 121 116 110 104 102
37 38 48 67 122 168 187 191 199 189 173 174 174 165 170 183 182 179 180 185 191 198 200 193 188 187 186 185 186 187 182 175 179 176 169 179 181 173 170 168 168 168 173 175 176 164 159 174 181 177 167 159 163 165 171 173 177 176 176 182 188 184 176 172 165 157 154 151 141 135 135 130 124 126 126 126 125 125 125 124 121 118 112 105 102
30 32 27 52 179 200 189 190 199 196 182 172 172 173 176 189 186 179 181 180 183 193 196 191 187 186 184 182 180 177 175 172 178 179 176 186 190 179 173 175 172 169 169 163 164 157 158 168 172 167 162 163 163 168 174 177 183 180 179 182 185 187 179 172 166 158 155 152 145 138 137 134 127 128 130 131 130 130 128 126 124 120 111 105 102
28 30 4 322 230 219 207 199 198 199 192 173 168 181 189 197 196 193 186 181 189 191 191 191 189 188 186 186 185 180 181 187 191 193 191 194 194 182 174 174 167 162 161 162 157 154 164 169 168 169 166 165 169 175 179 181 186 185 181 178 182 186 179 172 168 160 156 154 148 142 140 137 132 133 135 133 133 136 132 129 126 119 110 105 98
24 28 20 353 302 240 222 211 202 198 191 177 174 189 201 201 201 204 189 185 196 188 186 187 186 187 188 188 189 189 191 194 197 198 192 188 189 181 175 171 166 162 162 162 153 153 169 177 176 174 174 172 178 184 185 182 182 187 178 171 178 182 178 173 169 163 159 155 151 147 145 143 142 142 141 139 141 140 132 129 123 114 109 103 97
11 13 19 17 2 252 221 218 211 201 186 179 182 188 195 192 185 187 191 192 194 184 186 185 181 182 188 189 187 189 187 188 193 191 185 182 183 183 173 166 170 167 165 158 150 157 168 179 180 175 179 184 188 188 186 179 178 187 176 166 174 178 179 174 171 169 165 159 156 154 153 153 152 151 149 146 146 137 127 124 117 112 108 102 99
354 356 1 16 30 72 200 219 215 203 188 189 187 181 186 188 176 175 190 193 195 194 191 185 180 180 185 189 187 186 185 186 189 184 184 184 180 180 171 170 178 171 166 158 153 159 158 172 178 175 184 192 194 188 185 180 180 188 179 168 172 175 180 178 175 173 170 164 160 159 159 159 158 156 154 150 145 133 120 115 110 107 104 101 100
343 347 350 2 18 39 48 75 186 199 199 204 199 186 188 191 178 178 191 189 199 204 192 182 178 180 183 186 187 187 187 188 188 183 183 182 179 179 174 178 181 172 167 161 156 151 141 153 166 173 185 191 192 187 184 182 182 191 185 174 176 178 181 182 182 178 172 168 163 162 163 165 164 161 159 155 146 133 121 113 108 102 101 102 100
334 336 336 344 356 11 18 42 86 209 222 227 227 216 204 197 190 197 201 191 202 205 189 180 175 179 184 189 190 190 191 193 193 186 185 181 179 180 181 185 177 171 170 164 157 143 131 135 149 166 178 184 183 180 180 183 182 191 189 179 178 181 185 186 188 184 175 170 168 166 168 170 169 167 165 161 146 134 127 116 107 103 104 101 95
322 322 324 326 332 345 350 349 349 324 265 257 248 238 223 204 203 214 209 193 202 206 188 180 176 181 187 191 191 191 193 196 196 193 196 186 180 179 182 189 178 172 175 167 157 142 133 131 138 154 166 171 170 167 173 182 177 183 187 183 178 178 187 190 190 188 178 171 170 170 174 174 172 171 166 158 146 139 132 117 112 112 110 104 99
308 302 307 312 316 324 329 330 317 310 306 296 262 245 231 209 206 213 208 192 200 205 190 182 180 184 185 189 188 188 192 195 195 201 206 192 182 179 177 187 179 172 178 169 159 146 140 138 137 148 160 163 162 162 171 178 171 174 182 183 182 181 189 192 189 186 177 170 168 169 175 177 176 173 165 158 151 148 142 127 125 125 120 112 104
304 296 296 300 303 307 307 309 302 297 289 287 281 259 228 207 201 201 198 190 195 203 192 185 186 190 185 187 188 187 190 188 191 203 206 194 190 183 175 181 177 173 178 168 162 154 147 152 151 157 166 169 168 171 184 184 169 169 177 181 184 189 196 193 185 180 172 166 163 165 173 178 180 175 169 166 162 156 152 144 138 135 128 120 112
304 302 296 295 296 300 302 301 294 294 282 276 296 278 212 201 198 193 190 187 190 198 193 186 190 196 189 187 191 192 193 192 194 196 194 192 195 189 177 176 174 174 175 167 165 162 158 166 171 175 178 180 182 186 195 201 190 174 171 177 184 194 201 195 182 176 170 166 164 165 170 176 180 179 177 176 172 164 159 155 149 142 135 129 124
296 295 293 293 295 299 303 307 298 293 292 289 307 307 212 200 200 196 188 187 190 195 193 190 192 199 195 189 193 194 195 199 202 196 187 186 189 188 178 173 175 176 174 170 169 167 168 178 185 190 192 193 196 200 205 212 215 199 178 174 186 198 200 195 183 176 173 170 170 169 171 174 180 182 181 181 180 170 164 163 159 150 143 139 137
297 292 289 287 291 295 300 308 308 297 291 297 314 325 247 204 204 202 193 190 191 192 194 194 193 199 201 193 196 198 197 197 203 201 190 177 176 182 178 174 178 177 174 175 176 176 178 187 196 200 202 203 205 209 212 215 221 219 199 183 186 196 197 194 189 183 179 176 176 174 175 176 180 185 183 184 185 174 168 169 168 161 153 149 150
315 312 303 292 285 285 292 303 310 309 295 297 309 315 278 208 203 203 200 200 195 192 193 196 196 200 203 198 199 201 201 200 201 203 192 175 170 175 178 179 180 178 178 179 182 185 187 194 203 209 212 212 213 215 217 220 222 224 218 200 189 191 193 194 193 190 186 182 181 179 179 178 181 188 186 185 184 174 173 177 176 169 164 161 164
335 331 323 309 290 278 278 287 297 306 304 301 307 306 271 213 204 202 203 205 203 201 197 196 198 201 205 203 202 201 201 203 203 203 198 186 175 175 181 185 185 184 184 186 191 193 195 200 206 214 220 221 221 221 222 224 225 226 224 210 197 194 194 195 192 192 192 187 185 181 181 181 183 188 188 185 180 175 179 184 183 176 173 173 176
356 346 341 335 319 291 277 279 284 291 299 303 308 308 266 220 214 210 208 207 206 206 202 200 199 200 206 206 205 206 204 205 204 202 202 200 192 187 191 195 194 195 194 194 197 199 202 206 209 216 222 226 227 227 227 226 226 227 225 213 203 203 202 198 191 189 192 190 189 186 185 186 185 188 188 183 177 177 183 189 187 183 181 183 186
10 13 15 7 356 337 303 283 279 279 285 291 297 298 285 245 227 222 218 218 216 211 207 206 203 202 207 210 209 210 210 209 206 203 202 202 202 200 200 203 203 204 203 202 202 203 207 212 216 220 225 229 231 230 230 229 226 226 223 214 207 208 209 204 196 190 193 193 194 193 194 195 190 188 188 183 179 182 187 191 190 188 188 190 195
31 50 40 27 18 5 351 318 292 281 276 276 280 281 281 271 246 232 220 224 228 227 222 213 207 206 209 212 213 212 214 215 212 211 208 204 205 206 203 203 205 207 209 210 211 211 213 220 225 227 228 230 233 232 232 231 229 225 220 215 209 210 212 210 203 199 202 203 203 204 206 207 197 190 188 185 183 188 191 192 191 192 193 195 202
58 64 36 25 26 23 17 4 333 304 283 272 271 269 272 271 266 261 240 232 235 237 234 222 211 211 212 213 214 213 215 218 219 219 217 211 209 211 207 204 208 214 217 218 219 220 222 228 231 232 233 233 234 234 233 232 230 226 220 216 211 210 212 212 210 211 214 215 216 218 218 217 205 194 190 187 187 193 194 192 194 197 198 200 205
62 52 29 21 24 26 28 27 17 346 314 287 274 265 264 265 265 270 268 266 263 255 245 229 217 215 216 215 215 216 216 219 222 221 222 221 217 216 211 208 214 221 224 225 225 227 229 231 232 233 236 238 237 236 234 232 230 228 222 217 214 211 211 211 211 216 221 224 226 227 229 226 212 200 193 189 190 196 196 194 199 202 203 206 209
56 43 32 27 28 29 31 32 34 28 358 320 297 280 268 264 263 265 268 272 272 273 270 251 232 223 221 219 217 217 217 219 223 223 224 226 223 221 217 215 221 225 225 228 228 226 228 230 231 232 233 236 239 238 236 234 230 228 223 217 216 214 210 210 213 219 225 229 230 231 235 235 221 204 194 191 193 196 197 198 203 206 207 211 213
49 35 29 32 41 40 37 34 33 36 29 3 328 306 291 277 270 268 267 268 270 271 272 271 264 250 235 227 221 217 217 219 222 223 225 227 225 223 222 222 224 226 225 228 228 224 226 231 233 233 232 235 239 239 238 235 231 227 223 217 217 216 212 211 215 221 228 232 234 234 236 238 229 212 198 193 194 196 198 202 204 208 212 214 215
45 28 27 38 48 40 37 38 36 37 35 26 4 334 312 296 283 279 277 273 271 270 269 269 269 266 259 247 231 221 217 220 222 223 224 228 229 227 226 226 227 230 230 229 226 222 223 230 236 235 234 236 241 241 238 236 231 226 222 217 216 220 218 215 218 224 231 236 237 237 240 240 234 223 207 198 196 196 199 203 204 208 214 217 217
49 27 25 35 36 31 35 41 41 39 36 32 20 358 333 314 295 285 283 285 281 276 274 271 268 262 259 258 245 230 221 220 222 223 223 226 231 232 232 231 231 234 236 231 226 223 223 227 236 239 236 237 243 245 239 234 230 225 221 217 216 220 221 221 223 227 234 240 242 241 243 242 236 229 217 205 200 199 200 202 205 208 213 216 217
61 25 21 27 24 26 39 44 43 40 37 33 26 16 359 339 318 299 284 284 286 283 281 279 276 268 258 252 251 244 231 223 222 224 225 226 230 234 236 236 234 233 234 232 228 226 224 226 233 240 242 240 243 247 242 231 227 224 221 217 217 219 220 223 226 230 235 242 247 247 246 246 241 233 223 212 205 202 203 204 207 211 214 216 216
122 15 15 24 24 29 44 46 42 40 35 31 25 19 10 358 343 325 302 288 281 278 279 282 284 279 268 255 246 246 241 231 225 224 227 228 228 231 236 239 238 235 231 231 231 229 227 227 232 237 243 243 241 245 243 229 222 222 220 218 217 218 220 225 229 232 237 243 250 253 251 249 246 238 227 219 212 206 206 208 211 214 218 219 218
199 248 337 17 25 29 39 37 33 30 27 25 20 14 8 0 351 340 325 307 290 279 272 273 280 281 277 267 251 241 241 241 234 229 228 229 228 229 233 236 238 238 234 231 231 231 230 230 233 235 239 242 239 240 240 227 219 218 218 217 217 218 222 227 232 237 242 248 253 257 257 254 250 244 234 226 220 213 208 210 214 218 222 223 222
217 239 264 302 3 2 1 5 4 6 10 10 9 7 4 359 352 342 331 322 306 289 277 272 274 278 277 273 264 250 242 243 243 238 232 230 229 228 230 230 230 236 238 235 232 231 232 231 231 233 234 235 235 234 236 227 217 214 214 216 217 220 225 230 236 243 250 253 254 257 258 257 254 248 241 233 228 222 215 212 214 219 224 225 224
229 241 252 259 266 282 302 321 331 340 348 352 353 354 355 357 356 348 335 326 317 300 282 274 273 279 282 273 267 261 252 247 245 244 240 236 233 230 230 228 225 232 236 234 232 231 233 231 227 229 229 228 229 226 228 224 215 212 211 214 219 224 231 236 242 247 250 251 251 254 256 257 256 251 246 240 235 231 224 218 215 218 223 226 225
236 242 249 256 259 266 283 299 310 319 328 336 341 345 347 351 354 354 345 330 320 310 290 275 271 274 282 278 267 262 259 256 251 249 248 245 240 235 234 233 231 240 246 241 236 232 233 230 223 227 228 225 225 220 218 217 212 210 212 218 224 229 234 237 240 242 243 247 248 249 253 255 254 251 248 244 240 236 230 226 221 219 222 226 226
237 243 246 250 255 260 273 291 300 307 314 322 332 340 344 347 349 349 347 338 323 311 298 282 271 267 271 274 272 266 262 260 257 255 255 252 248 241 238 236 237 246 258 248 236 230 232 228 218 221 227 224 223 220 214 210 209 210 211 217 224 228 232 233 233 234 236 242 246 246 250 252 249 248 249 245 241 238 232 229 225 223 224 225 228
237 242 244 247 254 257 264 284 295 301 307 313 324 335 341 344 345 343 342 340 329 314 304 293 277 268 267 268 270 271 268 264 260 258 259 258 255 249 244 243 244 249 259 250 235 229 231 228 218 217 224 222 221 220 216 211 207 205 203 209 216 221 228 231 230 229 231 237 243 244 244 243 242 247 250 246 242 237 231 229 228 225 224 227 229
240 244 245 250 256 259 265 277 287 295 301 306 319 331 337 341 342 339 336 334 330 320 308 298 288 277 271 271 273 273 272 270 266 261 260 261 259 256 251 248 246 245 249 248 237 231 231 228 219 216 222 222 218 219 218 213 209 205 202 203 206 214 224 229 230 230 231 236 242 240 235 235 238 244 251 246 239 233 227 227 229 227 225 227 223
245 247 247 250 256 260 268 277 283 289 294 302 316 326 334 340 341 337 333 332 330 325 312 297 288 284 278 277 278 278 276 273 270 267 263 261 260 258 254 249 240 231 231 237 236 231 230 229 223 218 221 224 220 219 218 214 214 214 210 205 199 211 221 220 225 231 233 237 241 237 230 229 232 238 246 242 230 224 222 225 228 227 224 221 211
248 249 248 250 256 262 269 277 281 285 290 302 318 326 336 343 342 338 334 333 332 329 322 308 291 283 281 278 278 278 278 274 272 270 267 262 259 257 252 245 237 227 225 231 234 234 234 233 229 222 221 225 223 222 222 217 216 219 218 217 218 224 222 212 210 223 232 235 237 234 228 226 228 229 229 226 219 217 218 222 224 220 214 208 203
249 251 251 253 259 264 269 275 278 281 287 302 318 329 342 348 346 342 338 335 333 331 327 321 309 294 286 282 280 277 276 274 271 270 269 265 258 253 250 243 237 230 227 229 232 235 238 239 237 229 222 224 225 224 227 224 219 219 221 223 228 231 231 225 216 208 217 228 230 229 226 224 223 220 218 217 215 213 211 212 210 203 200 200 201
252 254 255 258 262 266 269 274 276 276 284 302 318 332 346 352 350 347 344 340 334 332 329 325 320 311 299 291 285 282 282 279 273 269 267 266 261 252 246 241 236 233 232 233 232 232 233 235 238 232 224 223 226 226 228 228 225 224 223 222 225 228 230 234 228 217 217 220 222 224 225 223 220 215 213 213 213 212 207 200 195 192 195 199 201
254 257 258 261 264 267 270 272 273 273 281 298 315 334 348 353 353 350 347 344 336 333 330 326 322 318 311 303 294 288 288 286 284 278 269 265 262 254 246 239 235 233 231 233 233 233 232 231 232 231 227 226 227 227 228 230 231 230 227 224 223 224 227 232 232 226 226 222 215 219 222 221 217 214 212 211 211 210 204 196 191 192 195 197 198
258 260 261 262 265 268 269 270 269 269 276 293 310 331 346 351 353 350 346 343 337 333 331 327 322 319 315 310 304 297 290 286 286 287 281 272 264 257 248 239 235 233 231 229 229 231 234 234 232 232 231 230 230 231 230 232 235 233 231 228 224 222 222 224 226 223 222 225 222 218 221 222 218 214 210 209 209 207 202 196 192 192 194 195 197
261 263 264 265 266 268 268 267 266 265 270 286 304 324 340 346 349 348 344 340 335 332 331 328 322 317 314 312 308 304 298 292 286 284 283 281 274 267 257 246 238 233 230 229 227 228 231 234 235 234 234 233 235 237 234 233 234 234 234 232 228 227 224 221 223 222 217 219 221 216 218 222 217 213 211 208 207 206 201 197 194 193 194 196 200